| time (UTC) | temp F | wind direction | speed knots | gust knots | rain 1hr in | rain 24hr in | rain mn in | humidity % | barometer mb |
| 20260831073017 | 75 | 158 | 5.2 | 9.6 | 0.00 | 0.00 | 0.00 | 78 | 993.5 |
| 20260831070017 | 76 | 158 | 5.2 | 9.6 | 0.00 | 0.00 | 0.00 | 77 | 993.6 |
| 20260831063017 | 76 | 180 | 5.2 | 9.6 | 0.00 | 0.00 | 0.00 | 77 | 993.7 |
| 20260831060017 | 77 | 158 | 5.2 | 12.2 | 0.00 | 0.00 | 0.00 | 77 | 993.9 |
| 20260831053017 | 77 | 158 | 6.1 | 9.6 | 0.00 | 0.00 | 0.00 | 76 | 993.9 |
| 20260831050038 | 77 | 158 | 7.0 | 12.2 | 0.00 | 0.00 | 0.00 | 76 | 993.7 |
| 20260831043017 | 78 | 158 | 7.0 | 12.2 | 0.00 | 0.00 | 0.00 | 76 | 993.9 |
| 20260831040017 | 78 | 158 | 7.0 | 11.3 | 0.00 | 0.00 | 0.00 | 77 | 994.1 |
| 20260831033017 | 78 | 158 | 6.1 | 11.3 | 0.00 | 0.00 | 0.00 | 78 | 994.2 |
| 20260831030017 | 79 | 135 | 5.2 | 9.6 | 0.00 | 0.00 | 0.00 | 80 | 994.2 |
| 20260831023019 | 79 | 135 | 4.3 | 9.6 | 0.00 | 0.00 | 0.00 | 80 | 994.2 |
| 20260831020017 | 80 | 135 | 4.3 | 7.8 | 0.00 | 0.00 | 0.00 | 81 | 994.0 |
| 20260831013039 | 80 | 135 | 5.2 | 7.8 | 0.00 | 0.00 | 0.00 | 83 | 993.5 |
| 20260831010017 | 81 | 135 | 5.2 | 9.6 | 0.00 | 0.00 | 0.00 | 81 | 993.3 |
| 20260831003017 | 82 | 113 | 4.3 | 9.6 | 0.00 | 0.00 | 0.00 | 79 | 993.4 |
| 20260831000017 | 85 | 135 | 5.2 | 9.6 | 0.00 | 0.00 | 0.00 | 75 | 993.5 |
| 20260830233018 | 86 | 135 | 6.1 | 9.6 | 0.00 | 0.00 | 0.00 | 73 | 993.9 |
| 20260830230017 | 86 | 135 | 6.1 | 11.3 | 0.00 | 0.00 | 0.00 | 71 | 993.5 |
| 20260830223017 | 86 | 135 | 6.1 | 13.0 | 0.00 | 0.00 | 0.00 | 67 | 993.4 |
| 20260830220017 | 86 | 135 | 7.0 | 12.2 | 0.00 | 0.00 | 0.00 | 70 | 993.6 |
| 20260830213017 | 88 | 135 | 7.0 | 15.6 | 0.00 | 0.00 | 0.00 | 64 | 993.9 |
| 20260830210019 | 85 | 113 | 5.2 | 11.3 | 0.00 | 0.00 | 0.00 | 77 | 994.3 |
| 20260830203017 | 84 | 90 | 5.2 | 10.4 | 0.00 | 0.00 | 0.00 | 77 | 994.9 |
| 20260830200017 | 83 | 113 | 3.5 | 9.6 | 0.00 | 0.00 | 0.00 | 78 | 995.2 |
| 20260830193019 | 81 | 113 | 5.2 | 10.4 | 0.00 | 0.00 | 0.00 | 81 | 994.6 |
| 20260830190038 | 78 | 135 | 3.5 | 7.8 | 0.00 | 0.00 | 0.00 | 83 | 995.1 |
| 20260830183017 | 79 | 158 | 2.6 | 7.0 | 0.00 | 0.00 | 0.00 | 80 | 995.4 |
| 20260830180017 | 79 | 158 | 4.3 | 8.7 | 0.00 | 0.00 | 0.00 | 76 | 995.0 |
| 20260830173038 | 80 | 180 | 7.0 | 15.6 | 0.00 | 0.00 | 0.00 | 72 | 995.1 |
| 20260830170018 | 81 | 203 | 7.0 | 15.6 | 0.00 | 0.00 | 0.00 | 70 | 994.8 |
| 20260830163017 | 80 | 180 | 7.0 | 12.2 | 0.00 | 0.00 | 0.00 | 72 | 994.9 |
| 20260830160017 | 79 | 180 | 7.0 | 13.9 | 0.00 | 0.00 | 0.00 | 71 | 995.2 |
| 20260830153017 | 78 | 180 | 5.2 | 12.2 | 0.00 | 0.00 | 0.00 | 72 | 995.0 |
| 20260830150018 | 74 | 225 | 4.3 | 8.7 | 0.00 | 0.00 | 0.00 | 75 | 995.5 |
| 20260830143018 | 75 | 203 | 6.1 | 16.5 | 0.00 | 0.00 | 0.00 | 74 | 995.0 |
| 20260830140018 | 76 | 203 | 8.7 | 14.8 | 0.00 | 0.00 | 0.00 | 69 | 994.1 |
| 20260830133017 | 76 | 203 | 7.8 | 16.5 | 0.00 | 0.00 | 0.00 | 70 | 994.2 |
| 20260830130018 | 75 | 203 | 7.8 | 15.6 | 0.00 | 0.00 | 0.00 | 70 | 994.4 |
| 20260830123017 | 74 | 203 | 8.7 | 16.5 | 0.00 | 0.00 | 0.00 | 71 | 994.3 |
| 20260830120018 | 74 | 203 | 7.8 | 20.9 | 0.00 | 0.00 | 0.00 | 71 | 994.2 |
| 20260830113018 | 74 | 203 | 7.0 | 14.8 | 0.00 | 0.00 | 0.00 | 72 | 994.3 |
| 20260830110017 | 74 | 180 | 7.0 | 18.2 | 0.00 | 0.00 | 0.00 | 72 | 994.2 |
| 20260830103020 | 73 | 180 | 6.1 | 12.2 | 0.00 | 0.00 | 0.00 | 74 | 994.1 |
| 20260830100017 | 73 | 180 | 7.0 | 13.0 | 0.00 | 0.00 | 0.00 | 75 | 994.3 |
| 20260830093019 | 73 | 180 | 7.0 | 13.9 | 0.00 | 0.00 | 0.00 | 74 | 994.3 |
| 20260830090018 | 73 | 180 | 7.0 | 13.9 | 0.00 | 0.00 | 0.00 | 75 | 994.2 |
| 20260830083018 | 74 | 180 | 7.0 | 13.9 | 0.00 | 0.00 | 0.00 | 75 | 994.3 |
| 20260830080017 | 73 | 180 | 6.1 | 11.3 | 0.00 | 0.00 | 0.00 | 76 | 994.2 |